Location: Gorze? G�rny
(49.8500°N, 19.5000°E)
Time: 04:23:47
(UTC+00:00)

ATLAS CENTAUR R/B - Pass Details

Date: 13 May 2021
Orbit: 472 x 671 km, 64.6° (Epoch: 13 June)

Event Time Altitude Azimuth Distance (km) Brightness Sun altitude
Exits shadow 22:05:36 32° 86° (E) 870 2.2 -21.2°
Drops below altitude 10° 22:08:11 10° 53° (NE) 1,713 4.2 -21.2°
Sets 22:10:29 0° 45° (NE) 2,631 5.3 -21.3°
